[[{"header":{"parameterUnit":"m.s-1","parameterCategory":1,"la1":30.2991,"la2":30.254,"lo1":-89.0895,"lo2":-89.0444,"dy":0.0017,"dx":0.0017,"nx":28,"ny":28,"refTime":"2024-08-29T09:00:00:Z","depth":0,"parameterNumber":2,"parameterNumberName":"U-component_of_WINDS"},"data":[0,0,0,0,0,0,0,0,0,0,0,0,0,0,0,0,0,0,0,0,0,0,0,0,0,0,0,0,0,0,0,0,0,0,0,0,0,0,0,0,0,0,0,0,0,0,0,0,0,0,0,0,0,0,0,0,0,0,-3.6943,-3.6944,0,-3.7031,-3.7032,-3.7033,-3.6958,-3.6955,-3.6952,-3.6949,-3.7038,-3.7043,-3.7048,0,0,0,0,0,0,0,0,0,0,0,0,0,-3.671,-3.6715,-3.6943,-3.6944,-3.6945,-3.7031,-3.7032,-3.7033,-3.6959,-3.6955,-3.6951,-3.6948,-3.7036,-3.7043,-3.7049,0,0,0,0,0,0,0,0,0,0,0,0,0,-3.6806,-3.6717,-3.6943,-3.6918,-3.6917,-3.703,-3.7032,-3.7033,-3.6959,-3.6955,-3.695,-3.6946,-3.7034,-3.7042,-3.705,-3.7191,0,0,-3.7074,-3.7077,0,0,0,0,0,0,0,0,-3.6801,-3.6815,-3.6921,-3.692,-3.6919,-3.6979,-3.6982,-3.7086,-3.6961,-3.6943,-3.6949,-3.6944,-3.7022,-3.7031,-3.7057,-3.7196,-3.7199,-3.7075,-3.7079,-3.7083,-3.7085,0,0,0,0,0,0,0,-3.6794,-3.6811,-3.6978,-3.6923,-3.6921,-3.6903,-3.6911,-3.7002,-3.7008,-3.6945,-3.6939,-3.6951,-3.7021,-3.705,-3.7059,-3.7201,-3.7074,-3.7081,-3.7086,-3.7089,-3.7458,-3.7463,0,0,0,0,0,0,-3.679,-3.6806,-3.6975,-3.698,-3.6847,-3.6911,-3.692,-3.6964,-3.7006,-3.7008,-3.6955,-3.6947,-3.7039,-3.705,-3.7062,-3.7229,-3.7083,-3.709,-3.7095,-3.7453,-3.7459,-3.7465,0,0,0,0,0,0,-3.6786,-3.6806,-3.6971,-3.6892,-3.6911,-3.692,-3.697,-3.6968,-3.6997,-3.7014,-3.7015,-3.6983,-3.7035,-3.7051,-3.7159,-3.7231,-3.7094,-3.7101,-3.7447,-3.7455,-3.7462,-3.7565,0,0,0,0,0,0,-3.6779,-3.6805,-3.6859,-3.6893,-3.6916,-3.7068,-3.6974,-3.6974,-3.7011,-3.7002,-3.7041,-3.7043,-3.7033,-3.7148,-3.7167,-3.7239,-3.7107,-3.7441,-3.7451,-3.746,-3.7555,-3.7575,-3.7593,0,0,0,0,0,-3.6771,-3.6885,-3.6862,-3.6883,-3.6984,-3.7072,-3.7085,-3.7071,-3.7018,-3.7072,-3.7082,-3.7042,-3.7221,-3.716,-3.7181,-3.7256,-3.7436,-3.7448,-3.7459,-3.7547,-3.7572,-3.7592,0,0,0,0,0,0,-3.6858,-3.6889,-3.6864,-3.6992,-3.703,-3.706,-3.7127,-3.7098,-3.7152,-3.7141,-3.7121,-3.713,-3.7245,-3.7262,-3.7194,-3.7395,-3.732,-3.7336,-3.7379,-3.7403,-3.7421,-3.7414,-3.7113,0,0,0,0,0,-3.6892,-3.6962,-3.6985,-3.7096,-3.7116,-3.7119,-3.7157,-3.7143,-3.7182,-3.7197,-3.7216,-3.7255,-3.7319,-3.7362,-3.7423,-3.7558,-3.7565,-3.7621,-3.7639,-3.7654,-3.7668,-3.7739,-3.7764,-3.7502,-3.7502,-3.7502,0,0,-3.6963,-3.6989,-3.7034,-3.7114,-3.7142,-3.7214,-3.7133,-3.7213,-3.7266,-3.7209,-3.7313,-3.7328,-3.737,-3.7493,-3.7548,-3.751,-3.7742,-3.7669,-3.7681,-3.7686,-3.7753,-3.7778,-3.78,-3.751,-3.7509,-3.7507,0,0,-3.7129,-3.7156,-3.7251,-3.728,-3.7324,-3.7325,-3.7348,-3.7382,-3.739,-3.7494,-3.7452,-3.7515,-3.7628,-3.7659,-3.7689,-3.7868,-3.7832,-3.7888,-3.7984,-3.8054,-3.8075,-3.8093,-3.8155,-3.8177,-3.7902,-3.7902,-3.7903,0,-3.7212,-3.7319,-3.7303,-3.7386,-3.7422,-3.7375,-3.747,-3.7499,-3.756,-3.7586,-3.7544,-3.7683,-3.7708,-3.7836,-3.788,-3.7907,-3.7931,-3.7882,-3.8073,-3.8091,-3.8108,-3.8167,-3.819,-3.7909,-3.7908,-3.7907,-3.7907,0,-3.7418,-3.7493,-3.7564,-3.7624,-3.7668,-3.7757,-3.7754,-3.7801,-3.7783,-3.7789,-3.7894,-3.7923,-3.7988,-3.8018,-3.8002,-3.8144,-3.8119,-3.8076,-3.7999,-3.8139,-3.8194,-3.8217,-3.7918,-3.7916,-3.7914,-3.7912,0,0,-3.764,-3.769,-3.7716,-3.7742,-3.7787,-3.7844,-3.7931,-3.7994,-3.8034,-3.8078,-3.8149,-3.8246,-3.8205,-3.824,-3.8227,-3.8289,-3.8427,-3.8238,-3.8238,-3.827,-3.8583,-3.8614,-3.8641,-3.8404,-3.8409,-3.8412,-3.8579,0,-3.7806,-3.7956,-3.7944,-3.8086,-3.8154,-3.8111,-3.8186,-3.8221,-3.8229,-3.8288,-3.8296,-3.8364,-3.8307,-3.8327,-3.8387,-3.8397,-3.8489,-3.8385,-3.8469,-3.8472,-3.8458,-3.867,-3.8703,-3.8859,-3.8601,-3.8604,-3.8607,0,-3.8019,-3.807,-3.8219,-3.8252,-3.8281,-3.8349,-3.8405,-3.8463,-3.8502,-3.8503,-3.8543,-3.8519,-3.8606,-3.8529,-3.8648,-3.8577,-3.8611,-3.8622,-3.8628,-3.8633,-3.8547,-3.8679,-3.8909,-3.8932,-3.8641,-3.8638,-3.8636,0,-3.8164,-3.827,-3.8372,-3.8396,-3.8439,-3.8487,-3.8507,-3.8541,-3.858,-3.863,-3.8655,-3.8715,-3.8747,-3.8794,-3.8787,-3.8732,-3.8907,-3.883,-3.8909,-3.891,-3.8947,-3.8944,-3.9183,-3.8972,-3.8972,-3.8971,-3.8971,0,-3.8349,-3.8442,-3.8437,-3.85,-3.8602,-3.8588,-3.8689,-3.8703,-3.8734,-3.8798,-3.8765,-3.8826,-3.8814,-3.8875,-3.8871,-3.8969,-3.8984,-3.8987,-3.8984,-3.8989,-3.8988,-3.9009,-3.8997,-3.8978,-3.8976,-3.8975,-3.8974,0,-3.8527,-3.8528,-3.8636,-3.8668,-3.8678,-3.8751,-3.8778,-3.8837,-3.8842,-3.8924,-3.8942,-3.895,-3.902,-3.9019,-3.9098,-3.9095,-3.9215,-3.9201,-3.9201,-3.9198,-3.9276,-3.9268,-3.9536,-3.9569,-3.9339,-3.9341,-3.9343,0,-3.8644,-3.8714,-3.8753,-3.8793,-3.8816,-3.8883,-3.8922,-3.8911,-3.8953,-3.9003,-3.9056,-3.9123,-3.9175,-3.9289,-3.9302,-3.9362,-3.9348,-3.9438,-3.9357,-3.9359,-3.9347,-3.9342,-3.9348,-3.9453,-3.9455,-3.9458,-3.9459,0,-3.8852,-3.8849,-3.8907,-3.8966,-3.9014,-3.9059,-3.9101,-3.9136,-3.913,-3.9179,-3.925,-3.9291,-3.9372,-3.9438,-3.9497,-3.9516,-3.9487,-3.9485,-3.9506,-3.951,-3.9507,-3.9508,-3.9242,-3.9478,-3.9476,-3.9475,-3.9474,-3.9473,-3.9002,-3.9061,-3.9097,-3.9163,-3.9193,-3.9233,-3.929,-3.9302,-3.9361,-3.9426,-3.9416,-3.9496,-3.9532,-3.9608,-3.9633,-3.9694,-3.9662,-3.9694,-3.9701,-3.9709,-3.9716,-3.9499,-3.9705,-3.9705,-3.9704,-3.9704,-3.9703,0,-3.9206,-3.9227,-3.9288,-3.9347,-3.9398,-3.9367,-3.9411,-3.9456,-3.9526,-3.9564,-3.9616,-3.9697,-3.9762,-3.978,-3.9842,-3.9887,-3.9875,-3.9904,-3.9899,-3.9904,-3.9742,-3.9717,-3.9912,-3.9912,-3.9912,-3.9912,-3.9912,-3.9912,-3.9318,-3.9416,-3.9418,-3.9531,-3.9551,-3.9628,-3.9656,-3.9693,-3.9722,-3.9814,-3.9867,-3.9879,-3.9908,-3.9972,-4.0029,-4.0033,-4.0056,-4.009,-4.0088,-3.9937,-3.9915,-3.9895,-3.9871,-4.0096,-4.0096,-4.0245,-4.0246,-4.0247]},{"header":{"parameterUnit":"m.s-1","parameterCategory":1,"la1":30.2991,"la2":30.254,"lo1":-89.0895,"lo2":-89.0444,"dy":0.0017,"dx":0.0017,"nx":28,"ny":28,"refTime":"2024-08-29T09:00:00:Z","depth":0,"parameterNumber":3,"parameterNumberName":"V-component_of_WINDS"},"data":[0,0,0,0,0,0,0,0,0,0,0,0,0,0,0,0,0,0,0,0,0,0,0,0,0,0,0,0,0,0,0,0,0,0,0,0,0,0,0,0,0,0,0,0,0,0,0,0,0,0,0,0,0,0,0,0,0,0,1.1197,1.1196,0,1.1059,1.1057,1.1056,1.0934,1.0932,1.0931,1.093,1.0788,1.0786,1.0784,0,0,0,0,0,0,0,0,0,0,0,0,0,1.1356,1.1353,1.1197,1.1195,1.1194,1.1059,1.1057,1.1055,1.0934,1.0932,1.0931,1.0929,1.0789,1.0786,1.0783,0,0,0,0,0,0,0,0,0,0,0,0,0,1.1259,1.1353,1.1197,1.1117,1.1108,1.106,1.1057,1.1055,1.0934,1.0932,1.093,1.0928,1.079,1.0787,1.0783,1.0803,0,0,1.0772,1.077,0,0,0,0,0,0,0,0,1.1265,1.1253,1.113,1.1122,1.1113,1.1011,1.1061,1.097,1.0935,1.1001,1.093,1.0927,1.0864,1.0855,1.0833,1.0796,1.079,1.0772,1.0769,1.0768,1.0767,0,0,0,0,0,0,0,1.1272,1.1259,1.1142,1.1129,1.1118,1.1088,1.1072,1.1044,1.0946,1.0995,1.0985,1.0971,1.0859,1.0837,1.0829,1.0788,1.0772,1.0768,1.0766,1.0765,1.076,1.0762,0,0,0,0,0,0,1.1291,1.1265,1.1147,1.1138,1.1185,1.1087,1.1069,1.1046,1.0946,1.0929,1.0973,1.0966,1.0844,1.0833,1.0824,1.0839,1.0768,1.0764,1.0762,1.0758,1.0761,1.0763,0,0,0,0,0,0,1.1295,1.1281,1.1152,1.1199,1.118,1.1086,1.1062,1.1044,1.1022,1.0929,1.0911,1.0968,1.0842,1.0829,1.0809,1.0833,1.0763,1.0759,1.0756,1.0759,1.0762,1.0873,0,0,0,0,0,0,1.13,1.1283,1.129,1.12,1.1178,1.114,1.1063,1.1043,1.1016,1.1006,1.092,1.0904,1.084,1.0815,1.0805,1.0827,1.0757,1.0753,1.0757,1.0761,1.0866,1.0879,1.089,0,0,0,0,0,1.1306,1.1327,1.1291,1.1277,1.1185,1.1142,1.1129,1.1054,1.1019,1.1024,1.0965,1.0907,1.0832,1.0814,1.0802,1.0823,1.0751,1.0756,1.0761,1.0861,1.0877,1.089,0,0,0,0,0,0,1.1422,1.1314,1.1273,1.1265,1.1214,1.1121,1.1126,1.1073,1.1031,1.1023,1.0932,1.0914,1.0904,1.0861,1.0843,1.0837,1.0784,1.0787,1.0864,1.0878,1.089,1.09,1.0753,0,0,0,0,0,1.1447,1.1421,1.1328,1.133,1.1307,1.1222,1.12,1.1147,1.109,1.1067,1.1006,1.0953,1.0917,1.0896,1.0858,1.086,1.0839,1.0868,1.088,1.0891,1.0893,1.0891,1.0903,1.0778,1.0778,1.0778,0,0,1.1498,1.1435,1.1425,1.1352,1.1306,1.1281,1.1204,1.1181,1.1161,1.1064,1.1041,1.0995,1.0929,1.092,1.0913,1.0885,1.0923,1.0897,1.0905,1.0902,1.0897,1.0909,1.0919,1.0781,1.0781,1.078,0,0,1.1577,1.1528,1.1524,1.148,1.1411,1.1354,1.1353,1.1269,1.1234,1.121,1.1136,1.1112,1.1053,1.1009,1.0979,1.1043,1.0988,1.1034,1.1095,1.1094,1.1104,1.1112,1.1134,1.1143,1.1037,1.1037,1.1037,0,1.1649,1.1609,1.1529,1.151,1.1481,1.1391,1.1387,1.1347,1.127,1.1251,1.122,1.1144,1.1094,1.1073,1.1089,1.1068,1.1064,1.1042,1.1109,1.1116,1.1122,1.1143,1.1151,1.1043,1.1042,1.1042,1.1041,0,1.17,1.1674,1.1679,1.1606,1.1577,1.1566,1.1484,1.1464,1.1414,1.1361,1.1338,1.1274,1.1222,1.1213,1.1164,1.1186,1.117,1.1126,1.107,1.1142,1.1159,1.1166,1.1052,1.1049,1.1048,1.1046,0,0,1.1848,1.1732,1.1735,1.1701,1.1618,1.1596,1.1581,1.1529,1.1514,1.1464,1.1449,1.1401,1.1359,1.1325,1.127,1.127,1.1324,1.1224,1.1221,1.1244,1.1343,1.1377,1.1387,1.1287,1.1289,1.1289,1.1348,0,1.1914,1.1881,1.1809,1.1798,1.1772,1.1687,1.1674,1.1622,1.1572,1.1543,1.1488,1.1455,1.1403,1.1382,1.1377,1.1318,1.1342,1.1313,1.1272,1.1271,1.129,1.1396,1.1431,1.149,1.1355,1.1356,1.1357,0,1.1985,1.194,1.1927,1.1846,1.1832,1.1822,1.1769,1.1742,1.1682,1.1645,1.1608,1.1548,1.1528,1.1478,1.1449,1.1431,1.141,1.1379,1.1379,1.1371,1.1318,1.1391,1.1507,1.1516,1.1367,1.1366,1.1365,0,1.2093,1.203,1.2013,1.1987,1.1892,1.1886,1.1847,1.1784,1.1758,1.1712,1.1694,1.1647,1.1621,1.1586,1.1514,1.1485,1.1493,1.1437,1.1462,1.1464,1.1466,1.1467,1.158,1.1455,1.1455,1.1455,1.1454,0,1.2173,1.2169,1.206,1.205,1.2043,1.196,1.1955,1.1907,1.1853,1.1832,1.1756,1.1738,1.1646,1.1618,1.1562,1.1546,1.1535,1.1505,1.149,1.1511,1.1515,1.1495,1.1489,1.1457,1.1456,1.1456,1.1456,0,1.2292,1.222,1.2196,1.2109,1.2086,1.2085,1.2009,1.1996,1.1942,1.1917,1.1907,1.1822,1.1784,1.171,1.1653,1.1615,1.1611,1.1586,1.1632,1.1622,1.165,1.1649,1.1754,1.1764,1.1634,1.1636,1.1637,0,1.2347,1.2342,1.2253,1.2234,1.2197,1.2167,1.214,1.2059,1.2034,1.1965,1.196,1.1917,1.1878,1.1823,1.1756,1.1712,1.1684,1.1724,1.1676,1.1698,1.1683,1.1684,1.1683,1.1734,1.1736,1.1737,1.1739,0,1.2453,1.2417,1.2381,1.2332,1.2302,1.2259,1.2213,1.2202,1.211,1.2086,1.2046,1.2016,1.1958,1.1916,1.1862,1.1821,1.1765,1.1754,1.1757,1.1778,1.1805,1.179,1.166,1.1752,1.1751,1.175,1.1749,1.1748,1.254,1.2531,1.2468,1.2429,1.2386,1.2345,1.2328,1.2272,1.2238,1.2183,1.2138,1.2103,1.2043,1.1964,1.1927,1.1899,1.1871,1.1876,1.1877,1.1879,1.1888,1.1811,1.1889,1.1888,1.1888,1.1887,1.1887,0,1.2641,1.2596,1.2562,1.2499,1.247,1.242,1.2366,1.2344,1.2314,1.2263,1.2226,1.2181,1.214,1.2071,1.2024,1.2015,1.1988,1.2005,1.2005,1.1996,1.1915,1.1917,1.2028,1.2028,1.2028,1.2028,1.2028,1.2028,1.269,1.2671,1.2629,1.2588,1.2543,1.2507,1.2481,1.2442,1.2401,1.2354,1.2319,1.2274,1.2216,1.2164,1.2125,1.2105,1.2091,1.2117,1.209,1.2015,1.2002,1.1989,1.199,1.2115,1.2115,1.2172,1.2173,1.2173]}]]